Regional Weather Roundup
Issued by NWS

Home | Current Version | Previous Version | Text Only | Print | Product List | Glossary Off
Versions: 1 2 3 4 5 6 7 8 9 10 11 12 13 14 15 16 17 18 19 20 21 22 23 24 25 26 27 28 29 30 31 32 33 34 35 36 37 38 39 40 41 42 43 44 45 46 47 48 49 50

000
ASUS43 KMKX 221628
RWRWI

WISCONSIN REGIONAL WEATHER ROUNDUP
NATIONAL WEATHER SERVICE MILWAUKEE/SULLIVAN WI
1100 AM CDT FRI MAY 22 2015

NOTE: "FAIR" INDICATES FEW OR NO CLOUDS BELOW 12,000 FEET WITH NO
SIGNIFICANT WEATHER AND/OR OBSTRUCTIONS TO VISIBILITY.

WIZ001-002-006>008-014>016-023>028-221700-
NORTHWEST WISCONSIN

CITY           SKY/WX    TMP DP  RH WIND       PRES   REMARKS
SUPERIOR ARPT  SUNNY     56  35  45 CALM      30.23F
ASHLAND        SUNNY     62  31  31 S3        30.22F
HAYWARD        SUNNY     63  28  26 N8        30.22F
SIREN          SUNNY     64  29  26 NE7       30.21F
CUMBERLAND     SUNNY     61  28  29 E5        30.22S
RICE LAKE      SUNNY     64  28  26 CALM      30.23S
CHETEK         SUNNY     62  33  34 N3        30.22S
LADYSMITH      SUNNY     62  32  33 NW3       30.23S
EAU CLAIRE     SUNNY     66  32  28 VRB3      30.21R
MENOMONIE      SUNNY     65  32  28 CALM      30.21S
NEW RICHMOND   SUNNY     64  30  28 N3        30.22S
OSCEOLA        SUNNY     65  37  34 CALM      30.24S
$$

WIZ003>005-009-010-017-018-221700-
NORTH CENTRAL WISCONSIN

CITY           SKY/WX    TMP DP  RH WIND       PRES   REMARKS
MANITOWISH WTR SUNNY     58  26  30 NW9       30.20F
ARBOR VITAE    SUNNY     60  28  30 N9        30.21F
WOODRUFF       SUNNY     60  28  30 N9        30.21F
RHINELANDER    SUNNY     60  26  27 NW10G18   30.21F
EAGLE RIVER    SUNNY     60  20  21 NW12G17   30.20S
LAND O LAKES   SUNNY     59  19  20 N5        30.21F
PHILLIPS       SUNNY     60  30  32 N3        30.21S
TOMAHAWK       SUNNY     59  27  29 W7        30.21F
MEDFORD        SUNNY     58  33  37 W5        30.21F
MERRILL        SUNNY     60  32  35 N6        30.22S
$$

WIZ029-030-035-036-043>047-221700-
CENTRAL WISCONSIN

CITY           SKY/WX    TMP DP  RH WIND       PRES   REMARKS
WAUSAU         SUNNY     61  30  31 VRB3      30.20F
MOSINEE        SUNNY     61  32  33 VRB5      30.23S
MARSHFIELD     SUNNY     62  35  36 SE3       30.21F
STEVENS POINT  SUNNY     59  31  34 W6        30.22F
WAUPACA        SUNNY     63  29  28 CALM      30.22F
WAUTOMA        SUNNY     62  29  29 CALM      30.23F
WISC RAPIDS    SUNNY     63  27  25 N5        30.23S
CAMP DOUGLAS   SUNNY     63  37  39 E6        30.21R
$$

WIZ011>013-019>022-031-037>040-048>050-221700-
NORTHEAST WISCONSIN

CITY           SKY/WX    TMP DP  RH WIND       PRES   REMARKS
ANTIGO         SUNNY     58  32  37 W8        30.21F
SHAWANO        SUNNY     59  30  33 CALM      30.22F
OCONTO         SUNNY     56  33  40 SE9       30.22F
STURGEON BAY   SUNNY     55  25  30 N5        30.26F
GREEN BAY      SUNNY     60  30  32 CALM      30.23F
MANITOWOC      SUNNY     53  32  44 SE12      30.24S
APPLETON       SUNNY     57  30  35 CALM      30.23F
CLINTONVILLE   SUNNY     61  30  31 CALM      30.22F
OSHKOSH        SUNNY     58  32  37 NE8       30.23S
$$

WIZ032>034-041-042-053>061-221700-
SOUTHWEST WISCONSIN

CITY           SKY/WX    TMP DP  RH WIND       PRES   REMARKS
LA CROSSE      SUNNY     66  44  45 S8        30.21R
SPARTA         SUNNY     65  34  31 S5        30.22R
VIROQUA        SUNNY     64  38  38 SW5       30.22R
BOSCOBEL       SUNNY     69  40  34 VRB3      30.22R
PRAIRIE DU CHI SUNNY     65  41  41 CALM      30.22R
PLATTEVILLE    SUNNY     64  41  41 CALM      30.22R
$$

WIZ056-057-062-063-064-067-068-221700-
SOUTH CENTRAL WISCONSIN

CITY           SKY/WX    TMP DP  RH WIND       PRES   REMARKS
REEDSBURG      SUNNY     62  37  40 S3        30.22R
BARABOO/DELLS  SUNNY     62  33  32 S5        30.22R
LONE ROCK      SUNNY     66  38  35 CALM      30.22S
MINERAL POINT  SUNNY     64  36  34 SE3       30.23R
MADISON        MOSUNNY   62  34  35 CALM      30.22R
MIDDLETON      SUNNY     64  28  25 CALM      30.23R
WATERTOWN      SUNNY     60  34  37 S3        30.22S
MONROE         SUNNY     63  37  39 SE3       30.22R
JANESVILLE     SUNNY     64  30  27 SE6       30.21R
$$

WIZ051-052-058>065-066-070>072-221700-
SOUTHEAST WISCONSIN

CITY           SKY/WX    TMP DP  RH WIND       PRES   REMARKS
MILWAUKEE      SUNNY     54  31  41 NE10      30.25R
WAUKESHA       SUNNY     57  28  33 SE5       30.23S
MILWAUKEE/TIMM SUNNY     57  21  24 NE7       30.25R
RACINE         SUNNY     54  32  43 NE7       30.26R
BURLINGTON     SUNNY     60  29  30 E8        30.23R
KENOSHA        SUNNY     58  28  32 E7        30.25R
FOND DU LAC    SUNNY     61  30  31 NE3       30.23S
SHEBOYGAN      SUNNY     58  33  39 E6        30.24S
WEST BEND      SUNNY     59  28  31 CALM      30.23S
JUNEAU         SUNNY     59  31  35 CALM      30.23F
$$

LSZ147-162-221700-
LAKE SUPERIOR

STATION/POSITION TIME  TEMP    WIND        PRES    WAVE
                       AIR SEA DIR/SP/G            HT/PER
                 (UTC) (F)     (DEG/KT/KT) (MB)    (FT/S)
W MID LAKE BUOY  1550   37 36   90/  4/  6   N/A     0
DEVILS ISLAND    1600   41      80/  4/  5   N/A
PORT WING        1500   43      20/  4/  4   N/A
SAXON HARBOR     1500   49        CALM       N/A
$$

LMZ867-665-643>646-221700-
LAKE MICHIGAN

STATION/POSITION TIME  TEMP    WIND        PRES    WAVE
                       AIR SEA DIR/SP/G            HT/PER
                 (UTC) (F)     (DEG/KT/KT) (MB)    (FT/S)
CHAMBERS ISLAND  1500   46      20/  6/  7   N/A
N MID LAKE BUOY  1550   38 36   60/  6/  8   N/A     1
NORTHPORT PIER   1500   45      80/  7/  9   N/A
SISTER BAY       1502   51     340/  7/  8   N/A
KEWAUNEE LAKESHO 1600   46      90/  7/  9   N/A
SHEBOYGAN LAKESH 1600           70/  4/  5   N/A
PORT WASHINGTON  1440   50      40/  5/  7   N/A
ATWATER BUOY     1600   45 44   10/  6/  8   N/A
MILWAUKEE LAKESH 1600   45      30/  9/ 10   N/A
S MID LAKE BUOY  1550   40 38  350/  6/  6   N/A     1
KENOSHA   LAKESH 1600   46      30/  9/ 11   N/A
$$

TC  - TEMPERATURE IN CELSIUS
VSB - VISIBILITY IN STATUTE MILES
WCI - WIND CHILL INDEX
HX  - HEAT INDEX



USA.gov is the U.S. government's official web portal to all federal, state and local government web resources and services.